Weather History for Poplar Bluff, MO

Change the Weather History Date:

Friday, March 15, 2013

  Actual Average Record
Temperature  
Mean Temperature 56 °F -  
Max Temperature 78 °F 59 °F 80 °F (1945)
Min Temperature 36 °F 35 °F 19 °F (1993)
Degree Days  
Heating Degree Days 8    
Growing Degree Days 6 (Base 50)    
Moisture  
Dew Point 45 °F    
Average Humidity 63    
Maximum Humidity 89    
Minimum Humidity 43    
Precipitation  
Precipitation 0.00 in - - ()
Sea Level Pressure  
Sea Level Pressure 29.91 in    
Wind  
Wind Speed 6 mph (SSW)    
Max Wind Speed 22 mph    
Max Gust Speed 25 mph    
Visibility 10 miles    
Events      
Averages and records for this station are not official NWS values.
T = Trace of Precipitation, MM = Missing Value Source: NWS Daily Summary

Daily Weather History Graph

Daily Weather History Graph

Search for Another Location

Airport:

Trip Planner

Search our weather history database for the weather conditions in past years. The results will help you decide how hot, cold, wet, or windy it might be!

Date:

Astronomy

Mar. 15, 2013 Rise Set
Actual Time 7:11 AM CDT 7:08 PM CDT
Civil Twilight 6:46 AM CDT 7:34 PM CDT
Nautical Twilight 6:16 AM CDT 8:04 PM CDT
Astronomical Twilight 5:45 AM CDT 8:35 PM CDT
Moon 9:08 AM CDT (3/15) 11:15 PM CDT (3/15)
Length of Visible Light 12h 48m
Length of Day
11h 57m
Waxing Crescent, 15% of the Moon is Illuminated
Mar 15
Waxing Crescent
Mar 19
First Quarter
Mar 27
Full
Apr 2
Last Quarter
Apr 10
New

Hourly Weather History & Observations

Time (CDT) Temp. Dew Point Humidity Pressure Visibility Wind Dir Wind Speed Gust Speed Precip Events Conditions
12:53 AM 43.0 °F 37.0 °F 80% 30.09 in 10.0 mi Calm Calm - N/A   Clear
2:53 AM 37.9 °F 35.1 °F 89% 30.07 in 10.0 mi Calm Calm - N/A   Clear
4:53 AM 37.0 °F 34.0 °F 89% 30.04 in 10.0 mi Calm Calm - N/A   Clear
5:53 AM 37.0 °F 34.0 °F 89% 30.04 in 10.0 mi Calm Calm - N/A   Clear
6:53 AM 36.0 °F 33.1 °F 89% 30.03 in 10.0 mi Calm Calm - N/A   Clear
7:53 AM 37.0 °F 34.0 °F 89% 30.03 in 9.0 mi Calm Calm - N/A   Clear
8:53 AM 46.9 °F 41.0 °F 80% 30.02 in 10.0 mi SW 4.6 mph - N/A   Clear
9:53 AM 54.0 °F 44.1 °F 69% 30.02 in 10.0 mi SW 4.6 mph - N/A   Clear
10:53 AM 61.0 °F 46.0 °F 58% 29.99 in 10.0 mi SSW 9.2 mph - N/A   Clear
11:53 AM 64.9 °F 46.9 °F 52% 29.96 in 10.0 mi SSW 8.1 mph - N/A   Clear
12:53 PM 71.1 °F 50.0 °F 47% 29.94 in 10.0 mi SSW 9.2 mph - N/A   Clear
1:53 PM 72.0 °F 51.1 °F 48% 29.90 in 10.0 mi SSW 15.0 mph - N/A   Clear
2:53 PM 75.0 °F 52.0 °F 44% 29.86 in 10.0 mi South 17.3 mph 23.0 mph N/A   Clear
3:53 PM 77.0 °F 53.1 °F 43% 29.83 in 10.0 mi SSW 21.9 mph 25.3 mph N/A   Clear
4:53 PM 75.0 °F 53.1 °F 46% 29.80 in 10.0 mi SSW 15.0 mph 21.9 mph N/A   Clear
5:53 PM 73.0 °F 53.1 °F 49% 29.78 in 10.0 mi SSW 15.0 mph - N/A   Clear
6:53 PM 71.1 °F 52.0 °F 51% 29.78 in 10.0 mi SSW 11.5 mph - N/A   Clear
7:53 PM 69.1 °F 51.1 °F 53% 29.78 in 10.0 mi SSW 15.0 mph - N/A   Clear
8:53 PM 69.1 °F 50.0 °F 51% 29.78 in 10.0 mi SSW 20.7 mph - N/A   Clear
9:53 PM 66.9 °F 50.0 °F 54% 29.78 in 10.0 mi SSW 16.1 mph - N/A   Clear
10:53 PM 66.0 °F 50.0 °F 56% 29.79 in 10.0 mi SSW 13.8 mph - N/A   Clear
11:53 PM 63.0 °F 50.0 °F 63% 29.78 in 10.0 mi SSW 10.4 mph - N/A   Clear